User: anonymous   Login
Location: Kunchanapalle
(16.4623°N, 80.6176°E)
Time: 11:18:49
(UTC+00:00)
Language:

CZ-2C R/B - Orbit

View from above orbital plane
View from above orbital plane
View from above satellite
View from above satellite

Ground track
Ground track

The orbit data is extracted from the following two-line orbital elements,

1 28480U 04046B   20296.81485628 +.00000020 +00000-0 +22947-4 0  9997
2 28480 098.0681 321.8253 0141352 207.4872 326.8255 14.25729770828560
Epoch (UTC): 22 October 2020 19:33:23
Eccentricity: 0.0141352
inclination: 98.0681°
perigee height: 704 km
apogee height: 907 km
right ascension of ascending node: 321.8253°
argument of perigee: 207.4872°
revolutions per day: 14.25729770
mean anomaly at epoch: 326.8255°
orbit number at epoch: 82856

The dashed part of the orbit path shows where the satellite is in the earth's shadow,  

DLR